Year,Month,Day,Hour,Minute,Value (Times are PST for temperature in C)
2015,09,13,00,00,16.10
2015,09,13,00,01,16.10
2015,09,13,00,02,16.10
2015,09,13,00,03,16.00
2015,09,13,00,04,16.00
2015,09,13,00,05,15.90
2015,09,13,00,06,15.90
2015,09,13,00,07,15.80
2015,09,13,00,08,15.80
2015,09,13,00,09,15.80
2015,09,13,00,10,15.70
2015,09,13,00,11,15.60
2015,09,13,00,12,15.60
2015,09,13,00,13,15.50
2015,09,13,00,14,15.50
2015,09,13,00,15,15.40
2015,09,13,00,16,15.40
2015,09,13,00,17,15.40
2015,09,13,00,18,15.30
2015,09,13,00,19,15.30
2015,09,13,00,20,15.30
2015,09,13,00,21,15.20
2015,09,13,00,22,15.20
2015,09,13,00,23,15.10
2015,09,13,00,24,15.10
2015,09,13,00,25,15.10
2015,09,13,00,26,15.10
2015,09,13,00,27,15.10
2015,09,13,00,28,15.10
2015,09,13,00,29,15.00
2015,09,13,00,30,15.00
2015,09,13,00,31,15.00
2015,09,13,00,32,14.90
2015,09,13,00,33,14.90
2015,09,13,00,34,14.90
2015,09,13,00,35,15.00
2015,09,13,00,36,15.00
2015,09,13,00,37,15.00
2015,09,13,00,38,15.00
2015,09,13,00,39,15.00
2015,09,13,00,40,15.00
2015,09,13,00,41,15.00
2015,09,13,00,42,15.10
2015,09,13,00,43,15.10
2015,09,13,00,44,15.20
2015,09,13,00,45,15.20
2015,09,13,00,46,15.30
2015,09,13,00,47,15.30
2015,09,13,00,48,15.30
2015,09,13,00,49,15.30
2015,09,13,00,50,15.30
2015,09,13,00,51,15.40
2015,09,13,00,52,15.40
2015,09,13,00,53,15.40
2015,09,13,00,54,15.40
2015,09,13,00,55,15.40
2015,09,13,00,56,15.40
2015,09,13,00,57,15.40
2015,09,13,00,58,15.40
2015,09,13,00,59,15.30
2015,09,13,01,00,15.30
2015,09,13,01,01,15.30
2015,09,13,01,02,15.30
2015,09,13,01,03,15.30
2015,09,13,01,04,15.30
2015,09,13,01,05,15.30
2015,09,13,01,06,15.30
2015,09,13,01,07,15.30
2015,09,13,01,08,15.30
2015,09,13,01,09,15.30
2015,09,13,01,10,15.30
2015,09,13,01,11,15.30
2015,09,13,01,12,15.30
2015,09,13,01,13,15.30
2015,09,13,01,14,15.30
2015,09,13,01,15,15.30
2015,09,13,01,16,15.40
2015,09,13,01,17,15.40
2015,09,13,01,18,15.40
2015,09,13,01,19,15.40
2015,09,13,01,20,15.40
2015,09,13,01,21,15.40
2015,09,13,01,22,15.40
2015,09,13,01,23,15.40
2015,09,13,01,24,15.40
2015,09,13,01,25,15.40
2015,09,13,01,26,15.40
2015,09,13,01,27,15.50
2015,09,13,01,28,15.50
2015,09,13,01,29,15.50
2015,09,13,01,30,15.50
2015,09,13,01,31,15.50
2015,09,13,01,32,15.50
2015,09,13,01,33,15.50
2015,09,13,01,34,15.50
2015,09,13,01,35,15.60
2015,09,13,01,36,15.50
2015,09,13,01,37,15.50
2015,09,13,01,38,15.50
2015,09,13,01,39,15.50
2015,09,13,01,40,15.50
2015,09,13,01,41,15.50
2015,09,13,01,42,15.50
2015,09,13,01,43,15.50
2015,09,13,01,44,15.50
2015,09,13,01,45,15.50
2015,09,13,01,46,15.50
2015,09,13,01,47,15.60
2015,09,13,01,48,15.60
2015,09,13,01,49,15.60
2015,09,13,01,50,15.60
2015,09,13,01,51,15.50
2015,09,13,01,52,15.50
2015,09,13,01,53,15.50
2015,09,13,01,54,15.50
2015,09,13,01,55,15.50
2015,09,13,01,56,15.50
2015,09,13,01,57,15.50
2015,09,13,01,58,15.40
2015,09,13,01,59,15.40
2015,09,13,02,00,15.40
2015,09,13,02,01,15.40
2015,09,13,02,02,15.40
2015,09,13,02,03,15.40
2015,09,13,02,04,15.30
2015,09,13,02,05,15.30
2015,09,13,02,06,15.30
2015,09,13,02,07,15.30
2015,09,13,02,08,15.30
2015,09,13,02,09,15.30
2015,09,13,02,10,15.30
2015,09,13,02,11,15.30
2015,09,13,02,12,15.30
2015,09,13,02,13,15.30
2015,09,13,02,14,15.30
2015,09,13,02,15,15.30
2015,09,13,02,16,15.30
2015,09,13,02,17,15.30
2015,09,13,02,18,15.30
2015,09,13,02,19,15.20
2015,09,13,02,20,15.20
2015,09,13,02,21,15.20
2015,09,13,02,22,15.20
2015,09,13,02,23,15.20
2015,09,13,02,24,15.20
2015,09,13,02,25,15.20
2015,09,13,02,26,15.20
2015,09,13,02,27,15.20
2015,09,13,02,28,15.20
2015,09,13,02,29,15.20
2015,09,13,02,30,15.20
2015,09,13,02,31,15.10
2015,09,13,02,32,15.10
2015,09,13,02,33,15.10
2015,09,13,02,34,15.10
2015,09,13,02,35,15.10
2015,09,13,02,36,15.10
2015,09,13,02,37,15.10
2015,09,13,02,38,15.10
2015,09,13,02,39,15.10
2015,09,13,02,40,15.10
2015,09,13,02,41,15.10
2015,09,13,02,42,15.10
2015,09,13,02,43,15.10
2015,09,13,02,44,15.10
2015,09,13,02,45,15.00
2015,09,13,02,46,15.00
2015,09,13,02,47,15.00
2015,09,13,02,48,15.00
2015,09,13,02,49,15.00
2015,09,13,02,50,15.00
2015,09,13,02,51,14.90
2015,09,13,02,52,14.90
2015,09,13,02,53,14.90
2015,09,13,02,54,14.90
2015,09,13,02,55,14.90
2015,09,13,02,56,14.90
2015,09,13,02,57,14.90
2015,09,13,02,58,14.90
2015,09,13,02,59,14.90
2015,09,13,03,00,14.80
2015,09,13,03,01,14.80
2015,09,13,03,02,14.80
2015,09,13,03,03,14.80
2015,09,13,03,04,14.80
2015,09,13,03,05,14.70
2015,09,13,03,06,14.70
2015,09,13,03,07,14.70
2015,09,13,03,08,14.70
2015,09,13,03,09,14.70
2015,09,13,03,10,14.70
2015,09,13,03,11,14.70
2015,09,13,03,12,14.70
2015,09,13,03,13,14.70
2015,09,13,03,14,14.70
2015,09,13,03,15,14.70
2015,09,13,03,16,14.70
2015,09,13,03,17,14.70
2015,09,13,03,18,14.70
2015,09,13,03,19,14.70
2015,09,13,03,20,14.70
2015,09,13,03,21,14.70
2015,09,13,03,22,14.70
2015,09,13,03,23,14.70
2015,09,13,03,24,14.70
2015,09,13,03,25,14.70
2015,09,13,03,26,14.70
2015,09,13,03,27,14.70
2015,09,13,03,28,14.70
2015,09,13,03,29,14.70
2015,09,13,03,30,14.70
2015,09,13,03,31,14.70
2015,09,13,03,32,14.70
2015,09,13,03,33,14.70
2015,09,13,03,34,14.70
2015,09,13,03,35,14.70
2015,09,13,03,36,14.70
2015,09,13,03,37,14.70
2015,09,13,03,38,14.70
2015,09,13,03,39,14.70
2015,09,13,03,40,14.70
2015,09,13,03,41,14.70
2015,09,13,03,42,14.70
2015,09,13,03,43,14.70
2015,09,13,03,44,14.70
2015,09,13,03,45,14.70
2015,09,13,03,46,14.70
2015,09,13,03,47,14.70
2015,09,13,03,48,14.70
2015,09,13,03,49,14.70
2015,09,13,03,50,14.70
2015,09,13,03,51,14.70
2015,09,13,03,52,14.60
2015,09,13,03,53,14.60
2015,09,13,03,54,14.60
2015,09,13,03,55,14.60
2015,09,13,03,56,14.60
2015,09,13,03,57,14.60
2015,09,13,03,58,14.60
2015,09,13,03,59,14.60
2015,09,13,04,00,14.60
2015,09,13,04,01,14.60
2015,09,13,04,02,14.60
2015,09,13,04,03,14.60
2015,09,13,04,04,14.60
2015,09,13,04,05,14.60
2015,09,13,04,06,14.60
2015,09,13,04,07,14.60
2015,09,13,04,08,14.60
2015,09,13,04,09,14.60
2015,09,13,04,10,14.60
2015,09,13,04,11,14.60
2015,09,13,04,12,14.60
2015,09,13,04,13,14.60
2015,09,13,04,14,14.60
2015,09,13,04,15,14.60
2015,09,13,04,16,14.60
2015,09,13,04,17,14.50
2015,09,13,04,18,14.50
2015,09,13,04,19,14.50
2015,09,13,04,20,14.50
2015,09,13,04,21,14.50
2015,09,13,04,22,14.40
2015,09,13,04,23,14.40
2015,09,13,04,24,14.40
2015,09,13,04,25,14.40
2015,09,13,04,26,14.40
2015,09,13,04,27,14.40
2015,09,13,04,28,14.40
2015,09,13,04,29,14.40
2015,09,13,04,30,14.40
2015,09,13,04,31,14.40
2015,09,13,04,32,14.40
2015,09,13,04,33,14.50
2015,09,13,04,34,14.50
2015,09,13,04,35,14.50
2015,09,13,04,36,14.40
2015,09,13,04,37,14.50
2015,09,13,04,38,14.50
2015,09,13,04,39,14.50
2015,09,13,04,40,14.50
2015,09,13,04,41,14.40
2015,09,13,04,42,14.40
2015,09,13,04,43,14.40
2015,09,13,04,44,14.40
2015,09,13,04,45,14.40
2015,09,13,04,46,14.40
2015,09,13,04,47,14.40
2015,09,13,04,48,14.40
2015,09,13,04,49,14.40
2015,09,13,04,50,14.40
2015,09,13,04,51,14.40
2015,09,13,04,52,14.40
2015,09,13,04,53,14.40
2015,09,13,04,54,14.40
2015,09,13,04,55,14.30
2015,09,13,04,56,14.30
2015,09,13,04,57,14.30
2015,09,13,04,58,14.30
2015,09,13,04,59,14.30
2015,09,13,05,00,14.30
2015,09,13,05,01,14.30
2015,09,13,05,02,14.30
2015,09,13,05,03,14.30
2015,09,13,05,04,14.30
2015,09,13,05,05,14.20
2015,09,13,05,06,14.20
2015,09,13,05,07,14.20
2015,09,13,05,08,14.20
2015,09,13,05,09,14.20
2015,09,13,05,10,14.20
2015,09,13,05,11,14.20
2015,09,13,05,12,14.10
2015,09,13,05,13,14.10
2015,09,13,05,14,14.10
2015,09,13,05,15,14.10
2015,09,13,05,16,14.10
2015,09,13,05,17,14.10
2015,09,13,05,18,14.10
2015,09,13,05,19,14.10
2015,09,13,05,20,14.10
2015,09,13,05,21,14.10
2015,09,13,05,22,14.10
2015,09,13,05,23,14.10
2015,09,13,05,24,14.10
2015,09,13,05,25,14.10
2015,09,13,05,26,14.00
2015,09,13,05,27,14.00
2015,09,13,05,28,14.00
2015,09,13,05,29,14.00
2015,09,13,05,30,14.00
2015,09,13,05,31,14.00
2015,09,13,05,32,14.00
2015,09,13,05,33,14.00
2015,09,13,05,34,14.00
2015,09,13,05,35,14.00
2015,09,13,05,36,14.00
2015,09,13,05,37,14.00
2015,09,13,05,38,13.90
2015,09,13,05,39,13.90
2015,09,13,05,40,13.90
2015,09,13,05,41,13.90
2015,09,13,05,42,13.90
2015,09,13,05,43,13.80
2015,09,13,05,44,13.80
2015,09,13,05,45,13.80
2015,09,13,05,46,13.70
2015,09,13,05,47,13.70
2015,09,13,05,48,13.70
2015,09,13,05,49,13.70
2015,09,13,05,50,13.60
2015,09,13,05,51,13.60
2015,09,13,05,52,13.60
2015,09,13,05,53,13.60
2015,09,13,05,54,13.60
2015,09,13,05,55,13.50
2015,09,13,05,56,13.50
2015,09,13,05,57,13.50
2015,09,13,05,58,13.50
2015,09,13,05,59,13.40
2015,09,13,06,00,13.40
2015,09,13,06,01,13.40
2015,09,13,06,02,13.40
2015,09,13,06,03,13.40
2015,09,13,06,04,13.30
2015,09,13,06,05,13.30
2015,09,13,06,06,13.30
2015,09,13,06,07,13.30
2015,09,13,06,08,13.20
2015,09,13,06,09,13.20
2015,09,13,06,10,13.20
2015,09,13,06,11,13.20
2015,09,13,06,12,13.10
2015,09,13,06,13,13.10
2015,09,13,06,14,13.10
2015,09,13,06,15,13.10
2015,09,13,06,16,13.00
2015,09,13,06,17,13.00
2015,09,13,06,18,13.00
2015,09,13,06,19,12.90
2015,09,13,06,20,12.90
2015,09,13,06,21,12.90
2015,09,13,06,22,12.90
2015,09,13,06,23,12.90
2015,09,13,06,24,12.80
2015,09,13,06,25,12.80
2015,09,13,06,26,12.80
2015,09,13,06,27,12.80
2015,09,13,06,28,12.80
2015,09,13,06,29,12.80
2015,09,13,06,30,12.80
2015,09,13,06,31,12.70
2015,09,13,06,32,12.70
2015,09,13,06,33,12.70
2015,09,13,06,34,12.70
2015,09,13,06,35,12.70
2015,09,13,06,36,12.70
2015,09,13,06,37,12.70
2015,09,13,06,38,12.70
2015,09,13,06,39,12.70
2015,09,13,06,40,12.70
2015,09,13,06,41,12.70
2015,09,13,06,42,12.60
2015,09,13,06,43,12.60
2015,09,13,06,44,12.60
2015,09,13,06,45,12.60
2015,09,13,06,46,12.60
2015,09,13,06,47,12.60
2015,09,13,06,48,12.50
2015,09,13,06,49,12.50
2015,09,13,06,50,12.50
2015,09,13,06,51,12.50
2015,09,13,06,52,12.40
2015,09,13,06,53,12.40
2015,09,13,06,54,12.40
2015,09,13,06,55,12.40
2015,09,13,06,56,12.40
2015,09,13,06,57,12.40
2015,09,13,06,58,12.40
2015,09,13,06,59,12.40
2015,09,13,07,00,12.40
2015,09,13,07,01,12.40
2015,09,13,07,02,12.40
2015,09,13,07,03,12.40
2015,09,13,07,04,12.50
2015,09,13,07,05,12.50
2015,09,13,07,06,12.50
2015,09,13,07,07,12.50
2015,09,13,07,08,12.60
2015,09,13,07,09,12.60
2015,09,13,07,10,12.60
2015,09,13,07,11,12.60
2015,09,13,07,12,12.60
2015,09,13,07,13,12.60
2015,09,13,07,14,12.60
2015,09,13,07,15,12.60
2015,09,13,07,16,12.70
2015,09,13,07,17,12.70
2015,09,13,07,18,12.70
2015,09,13,07,19,12.70
2015,09,13,07,20,12.70
2015,09,13,07,21,12.70
2015,09,13,07,22,12.80
2015,09,13,07,23,12.80
2015,09,13,07,24,12.80
2015,09,13,07,25,12.80
2015,09,13,07,26,12.80
2015,09,13,07,27,12.80
2015,09,13,07,28,12.80
2015,09,13,07,29,12.80
2015,09,13,07,30,12.80
2015,09,13,07,31,12.80
2015,09,13,07,32,12.80
2015,09,13,07,33,12.80
2015,09,13,07,34,12.80
2015,09,13,07,35,12.80
2015,09,13,07,36,12.80
2015,09,13,07,37,12.80
2015,09,13,07,38,12.80
2015,09,13,07,39,12.80
2015,09,13,07,40,12.80
2015,09,13,07,41,12.80
2015,09,13,07,42,12.80
2015,09,13,07,43,12.80
2015,09,13,07,44,12.80
2015,09,13,07,45,12.80
2015,09,13,07,46,12.80
2015,09,13,07,47,12.80
2015,09,13,07,48,12.80
2015,09,13,07,49,12.80
2015,09,13,07,50,12.90
2015,09,13,07,51,12.90
2015,09,13,07,52,12.90
2015,09,13,07,53,13.00
2015,09,13,07,54,13.00
2015,09,13,07,55,13.00
2015,09,13,07,56,13.10
2015,09,13,07,57,13.10
2015,09,13,07,58,13.10
2015,09,13,07,59,13.10
2015,09,13,08,00,13.10
2015,09,13,08,01,13.10
2015,09,13,08,02,13.20
2015,09,13,08,03,13.20
2015,09,13,08,04,13.20
2015,09,13,08,05,13.20
2015,09,13,08,06,13.30
2015,09,13,08,07,13.30
2015,09,13,08,08,13.30
2015,09,13,08,09,13.40
2015,09,13,08,10,13.40
2015,09,13,08,11,13.50
2015,09,13,08,12,13.50
2015,09,13,08,13,13.60
2015,09,13,08,14,13.60
2015,09,13,08,15,13.60
2015,09,13,08,16,13.70
2015,09,13,08,17,13.70
2015,09,13,08,18,13.80
2015,09,13,08,19,13.90
2015,09,13,08,20,13.90
2015,09,13,08,21,13.90
2015,09,13,08,22,14.00
2015,09,13,08,23,14.00
2015,09,13,08,24,14.00
2015,09,13,08,25,14.10
2015,09,13,08,26,14.10
2015,09,13,08,27,14.10
2015,09,13,08,28,14.20
2015,09,13,08,29,14.30
2015,09,13,08,30,14.30
2015,09,13,08,31,14.40
2015,09,13,08,32,14.40
2015,09,13,08,33,14.50
2015,09,13,08,34,14.60
2015,09,13,08,35,14.60
2015,09,13,08,36,14.60
2015,09,13,08,37,14.60
2015,09,13,08,38,14.60
2015,09,13,08,39,14.60
2015,09,13,08,40,14.60
2015,09,13,08,41,14.70
2015,09,13,08,42,14.70
2015,09,13,08,43,14.80
2015,09,13,08,44,14.80
2015,09,13,08,45,14.90
2015,09,13,08,46,14.90
2015,09,13,08,47,14.90
2015,09,13,08,48,15.00
2015,09,13,08,49,15.00
2015,09,13,08,50,15.00
2015,09,13,08,51,15.00
2015,09,13,08,52,15.00
2015,09,13,08,53,15.00
2015,09,13,08,54,15.10
2015,09,13,08,55,15.10
2015,09,13,08,56,15.10
2015,09,13,08,57,15.10
2015,09,13,08,58,15.10
2015,09,13,08,59,15.10
2015,09,13,09,00,15.20
2015,09,13,09,01,15.20
2015,09,13,09,02,15.20
2015,09,13,09,03,15.20
2015,09,13,09,04,15.20
2015,09,13,09,05,15.20
2015,09,13,09,06,15.20
2015,09,13,09,07,15.20
2015,09,13,09,08,15.20
2015,09,13,09,09,15.20
2015,09,13,09,10,15.20
2015,09,13,09,11,15.20
2015,09,13,09,12,15.30
2015,09,13,09,13,15.30
2015,09,13,09,14,15.20
2015,09,13,09,15,15.20
2015,09,13,09,16,15.20
2015,09,13,09,17,15.20
2015,09,13,09,18,15.30
2015,09,13,09,19,15.30
2015,09,13,09,20,15.30
2015,09,13,09,21,15.30
2015,09,13,09,22,15.30
2015,09,13,09,23,15.40
2015,09,13,09,24,15.40
2015,09,13,09,25,15.40
2015,09,13,09,26,15.50
2015,09,13,09,27,15.60
2015,09,13,09,28,15.60
2015,09,13,09,29,15.70
2015,09,13,09,30,15.70
2015,09,13,09,31,15.80
2015,09,13,09,32,15.80
2015,09,13,09,33,15.80
2015,09,13,09,34,15.80
2015,09,13,09,35,15.90
2015,09,13,09,36,15.90
2015,09,13,09,37,16.00
2015,09,13,09,38,16.10
2015,09,13,09,39,16.10
2015,09,13,09,40,16.20
2015,09,13,09,41,16.20
2015,09,13,09,42,16.30
2015,09,13,09,43,16.30
2015,09,13,09,44,16.40
2015,09,13,09,45,16.40
2015,09,13,09,46,16.50
2015,09,13,09,47,16.50
2015,09,13,09,48,16.60
2015,09,13,09,49,16.60
2015,09,13,09,50,16.60
2015,09,13,09,51,16.60
2015,09,13,09,52,16.70
2015,09,13,09,53,16.70
2015,09,13,09,54,16.70
2015,09,13,09,55,16.80
2015,09,13,09,56,16.80
2015,09,13,09,57,16.80
2015,09,13,09,58,16.90
2015,09,13,09,59,17.00
2015,09,13,10,00,17.00
2015,09,13,10,01,17.10
2015,09,13,10,02,17.10
2015,09,13,10,03,17.20
2015,09,13,10,04,17.20
2015,09,13,10,05,17.20
2015,09,13,10,06,17.20
2015,09,13,10,07,17.20
2015,09,13,10,08,17.10
2015,09,13,10,09,17.10
2015,09,13,10,10,17.10
2015,09,13,10,11,17.20
2015,09,13,10,12,17.20
2015,09,13,10,13,17.30
2015,09,13,10,14,17.30
2015,09,13,10,15,17.40
2015,09,13,10,16,17.40
2015,09,13,10,17,17.50
2015,09,13,10,18,17.60
2015,09,13,10,19,17.60
2015,09,13,10,20,17.60
2015,09,13,10,21,17.70
2015,09,13,10,22,17.80
2015,09,13,10,23,17.90
2015,09,13,10,24,18.00
2015,09,13,10,25,18.00
2015,09,13,10,26,18.10
2015,09,13,10,27,18.10
2015,09,13,10,28,18.10
2015,09,13,10,29,18.20
2015,09,13,10,30,18.30
2015,09,13,10,31,18.30
2015,09,13,10,32,18.30
2015,09,13,10,33,18.30
2015,09,13,10,34,18.30
2015,09,13,10,35,18.40
2015,09,13,10,36,18.40
2015,09,13,10,37,18.40
2015,09,13,10,38,18.30
2015,09,13,10,39,18.30
2015,09,13,10,40,18.20
2015,09,13,10,41,18.20
2015,09,13,10,42,18.20
2015,09,13,10,43,18.10
2015,09,13,10,44,18.10
2015,09,13,10,45,18.10
2015,09,13,10,46,18.10
2015,09,13,10,47,18.10
2015,09,13,10,48,18.10
2015,09,13,10,49,18.00
2015,09,13,10,50,18.00
2015,09,13,10,51,17.90
2015,09,13,10,52,17.90
2015,09,13,10,53,17.90
2015,09,13,10,54,17.90
2015,09,13,10,55,17.90
2015,09,13,10,56,17.90
2015,09,13,10,57,17.90
2015,09,13,10,58,17.90
2015,09,13,10,59,17.90
2015,09,13,11,00,17.80
2015,09,13,11,01,17.80
2015,09,13,11,02,17.80
2015,09,13,11,03,17.70
2015,09,13,11,04,17.70
2015,09,13,11,05,17.70
2015,09,13,11,06,17.80
2015,09,13,11,07,17.80
2015,09,13,11,08,17.80
2015,09,13,11,09,17.90
2015,09,13,11,10,17.90
2015,09,13,11,11,17.90
2015,09,13,11,12,18.00
2015,09,13,11,13,18.00
2015,09,13,11,14,18.00
2015,09,13,11,15,18.10
2015,09,13,11,16,18.00
2015,09,13,11,17,18.00
2015,09,13,11,18,18.10
2015,09,13,11,19,18.10
2015,09,13,11,20,18.10
2015,09,13,11,21,18.10
2015,09,13,11,22,18.10
2015,09,13,11,23,18.10
2015,09,13,11,24,18.10
2015,09,13,11,25,18.10
2015,09,13,11,26,18.00
2015,09,13,11,27,18.00
2015,09,13,11,28,17.90
2015,09,13,11,29,18.00
2015,09,13,11,30,18.00
2015,09,13,11,31,18.10
2015,09,13,11,32,18.10
2015,09,13,11,33,18.00
2015,09,13,11,34,17.90
2015,09,13,11,35,17.90
2015,09,13,11,36,17.80
2015,09,13,11,37,17.80
2015,09,13,11,38,17.80
2015,09,13,11,39,17.80
2015,09,13,11,40,17.80
2015,09,13,11,41,17.70
2015,09,13,11,42,17.70
2015,09,13,11,43,17.60
2015,09,13,11,44,17.60
2015,09,13,11,45,17.50
2015,09,13,11,46,17.40
2015,09,13,11,47,17.40
2015,09,13,11,48,17.40
2015,09,13,11,49,17.40
2015,09,13,11,50,17.40
2015,09,13,11,51,17.40
2015,09,13,11,52,17.30
2015,09,13,11,53,17.20
2015,09,13,11,54,17.20
2015,09,13,11,55,17.20
2015,09,13,11,56,17.10
2015,09,13,11,57,17.00
2015,09,13,11,58,17.00
2015,09,13,11,59,17.00
2015,09,13,12,00,17.00
2015,09,13,12,01,17.00
2015,09,13,12,02,16.90
2015,09,13,12,03,16.90
2015,09,13,12,04,16.90
2015,09,13,12,05,16.90
2015,09,13,12,06,16.90
2015,09,13,12,07,16.90
2015,09,13,12,08,17.00
2015,09,13,12,09,17.00
2015,09,13,12,10,17.10
2015,09,13,12,11,17.20
2015,09,13,12,12,17.20
2015,09,13,12,13,17.30
2015,09,13,12,14,17.30
2015,09,13,12,15,17.30
2015,09,13,12,16,17.40
2015,09,13,12,17,17.50
2015,09,13,12,18,17.60
2015,09,13,12,19,17.60
2015,09,13,12,20,17.70
2015,09,13,12,21,17.70
2015,09,13,12,22,17.80
2015,09,13,12,23,17.80
2015,09,13,12,24,17.70
2015,09,13,12,25,17.60
2015,09,13,12,26,17.50
2015,09,13,12,27,17.30
2015,09,13,12,28,17.30
2015,09,13,12,29,17.20
2015,09,13,12,30,17.20
2015,09,13,12,31,17.30
2015,09,13,12,32,17.30
2015,09,13,12,33,17.40
2015,09,13,12,34,17.50
2015,09,13,12,35,17.50
2015,09,13,12,36,17.60
2015,09,13,12,37,17.50
2015,09,13,12,38,17.50
2015,09,13,12,39,17.50
2015,09,13,12,40,17.40
2015,09,13,12,41,17.40
2015,09,13,12,42,17.50
2015,09,13,12,43,17.50
2015,09,13,12,44,17.60
2015,09,13,12,45,17.70
2015,09,13,12,46,17.70
2015,09,13,12,47,17.80
2015,09,13,12,48,17.80
2015,09,13,12,49,17.80
2015,09,13,12,50,17.80
2015,09,13,12,51,17.80
2015,09,13,12,52,17.80
2015,09,13,12,53,17.80
2015,09,13,12,54,17.80
2015,09,13,12,55,17.80
2015,09,13,12,56,17.90
2015,09,13,12,57,17.90
2015,09,13,12,58,18.00
2015,09,13,12,59,18.10
2015,09,13,13,00,18.20
2015,09,13,13,01,18.20
2015,09,13,13,02,18.20
2015,09,13,13,03,18.20
2015,09,13,13,04,18.20
2015,09,13,13,05,18.20
2015,09,13,13,06,18.20
2015,09,13,13,07,18.20
2015,09,13,13,08,18.20
2015,09,13,13,09,18.30
2015,09,13,13,10,18.30
2015,09,13,13,11,18.30
2015,09,13,13,12,18.30
2015,09,13,13,13,18.30
2015,09,13,13,14,18.30
2015,09,13,13,15,18.30
2015,09,13,13,16,18.30
2015,09,13,13,17,18.30
2015,09,13,13,18,18.40
2015,09,13,13,19,18.40
2015,09,13,13,20,18.40
2015,09,13,13,21,18.50
2015,09,13,13,22,18.50
2015,09,13,13,23,18.60
2015,09,13,13,24,18.60
2015,09,13,13,25,18.50
2015,09,13,13,26,18.50
2015,09,13,13,27,18.50
2015,09,13,13,28,18.50
2015,09,13,13,29,18.40
2015,09,13,13,30,18.40
2015,09,13,13,31,18.50
2015,09,13,13,32,18.60
2015,09,13,13,33,18.70
2015,09,13,13,34,18.80
2015,09,13,13,35,18.90
2015,09,13,13,36,18.90
2015,09,13,13,37,18.90
2015,09,13,13,38,18.80
2015,09,13,13,39,18.60
2015,09,13,13,40,18.50
2015,09,13,13,41,18.40
2015,09,13,13,42,18.30
2015,09,13,13,43,18.30
2015,09,13,13,44,18.20
2015,09,13,13,45,18.20
2015,09,13,13,46,18.10
2015,09,13,13,47,18.00
2015,09,13,13,48,18.00
2015,09,13,13,49,18.00
2015,09,13,13,50,17.90
2015,09,13,13,51,17.90
2015,09,13,13,52,18.00
2015,09,13,13,53,18.00
2015,09,13,13,54,18.10
2015,09,13,13,55,18.10
2015,09,13,13,56,18.10
2015,09,13,13,57,18.10
2015,09,13,13,58,18.10
2015,09,13,13,59,18.20
2015,09,13,14,00,18.20
2015,09,13,14,01,18.30
2015,09,13,14,02,18.30
2015,09,13,14,03,18.30
2015,09,13,14,04,18.30
2015,09,13,14,05,18.30
2015,09,13,14,06,18.30
2015,09,13,14,07,18.20
2015,09,13,14,08,18.20
2015,09,13,14,09,18.20
2015,09,13,14,10,18.10
2015,09,13,14,11,18.10
2015,09,13,14,12,18.00
2015,09,13,14,13,17.90
2015,09,13,14,14,17.80
2015,09,13,14,15,17.90
2015,09,13,14,16,17.90
2015,09,13,14,17,18.00
2015,09,13,14,18,18.00
2015,09,13,14,19,18.10
2015,09,13,14,20,18.10
2015,09,13,14,21,18.10
2015,09,13,14,22,18.00
2015,09,13,14,23,18.00
2015,09,13,14,24,18.00
2015,09,13,14,25,17.90
2015,09,13,14,26,18.00
2015,09,13,14,27,18.00
2015,09,13,14,28,18.00
2015,09,13,14,29,18.00
2015,09,13,14,30,17.90
2015,09,13,14,31,17.90
2015,09,13,14,32,17.80
2015,09,13,14,33,17.80
2015,09,13,14,34,17.70
2015,09,13,14,35,17.70
2015,09,13,14,36,17.80
2015,09,13,14,37,17.80
2015,09,13,14,38,17.80
2015,09,13,14,39,17.90
2015,09,13,14,40,17.90
2015,09,13,14,41,18.00
2015,09,13,14,42,18.20
2015,09,13,14,43,18.20
2015,09,13,14,44,18.20
2015,09,13,14,45,18.20
2015,09,13,14,46,18.20
2015,09,13,14,47,18.30
2015,09,13,14,48,18.30
2015,09,13,14,49,18.40
2015,09,13,14,50,18.40
2015,09,13,14,51,18.40
2015,09,13,14,52,18.40
2015,09,13,14,53,18.40
2015,09,13,14,54,18.40
2015,09,13,14,55,18.40
2015,09,13,14,56,18.40
2015,09,13,14,57,18.40
2015,09,13,14,58,18.50
2015,09,13,14,59,18.50
2015,09,13,15,00,18.60
2015,09,13,15,01,18.60
2015,09,13,15,02,18.70
2015,09,13,15,03,18.70
2015,09,13,15,04,18.70
2015,09,13,15,05,18.70
2015,09,13,15,06,18.70
2015,09,13,15,07,18.70
2015,09,13,15,08,18.70
2015,09,13,15,09,18.70
2015,09,13,15,10,18.70
2015,09,13,15,11,18.80
2015,09,13,15,12,18.90
2015,09,13,15,13,18.90
2015,09,13,15,14,18.90
2015,09,13,15,15,18.90
2015,09,13,15,16,19.00
2015,09,13,15,17,19.00
2015,09,13,15,18,19.10
2015,09,13,15,19,19.10
2015,09,13,15,20,19.00
2015,09,13,15,21,19.00
2015,09,13,15,22,18.90
2015,09,13,15,23,18.80
2015,09,13,15,24,18.80
2015,09,13,15,25,18.80
2015,09,13,15,26,18.80
2015,09,13,15,27,18.70
2015,09,13,15,28,18.60
2015,09,13,15,29,18.50
2015,09,13,15,30,18.50
2015,09,13,15,31,18.50
2015,09,13,15,32,18.40
2015,09,13,15,33,18.40
2015,09,13,15,34,18.40
2015,09,13,15,35,18.30
2015,09,13,15,36,18.30
2015,09,13,15,37,18.20
2015,09,13,15,38,18.20
2015,09,13,15,39,18.20
2015,09,13,15,40,18.10
2015,09,13,15,41,18.10
2015,09,13,15,42,18.10
2015,09,13,15,43,18.00
2015,09,13,15,44,18.00
2015,09,13,15,45,17.90
2015,09,13,15,46,17.90
2015,09,13,15,47,17.80
2015,09,13,15,48,17.80
2015,09,13,15,49,17.80
2015,09,13,15,50,17.80
2015,09,13,15,51,17.80
2015,09,13,15,52,17.80
2015,09,13,15,53,17.80
2015,09,13,15,54,17.90
2015,09,13,15,55,17.90
2015,09,13,15,56,17.90
2015,09,13,15,57,17.90
2015,09,13,15,58,17.90
2015,09,13,15,59,17.90
2015,09,13,16,00,17.80
2015,09,13,16,01,17.80
2015,09,13,16,02,17.80
2015,09,13,16,03,17.80
2015,09,13,16,04,17.70
2015,09,13,16,05,17.60
2015,09,13,16,06,17.50
2015,09,13,16,07,17.50
2015,09,13,16,08,17.60
2015,09,13,16,09,17.60
2015,09,13,16,10,17.60
2015,09,13,16,11,17.60
2015,09,13,16,12,17.60
2015,09,13,16,13,17.60
2015,09,13,16,14,17.60
2015,09,13,16,15,17.60
2015,09,13,16,16,17.70
2015,09,13,16,17,17.70
2015,09,13,16,18,17.70
2015,09,13,16,19,17.70
2015,09,13,16,20,17.60
2015,09,13,16,21,17.60
2015,09,13,16,22,17.60
2015,09,13,16,23,17.60
2015,09,13,16,24,17.60
2015,09,13,16,25,17.60
2015,09,13,16,26,17.60
2015,09,13,16,27,17.70
2015,09,13,16,28,17.70
2015,09,13,16,29,17.60
2015,09,13,16,30,17.50
2015,09,13,16,31,17.40
2015,09,13,16,32,17.50
2015,09,13,16,33,17.50
2015,09,13,16,34,17.60
2015,09,13,16,35,17.50
2015,09,13,16,36,17.50
2015,09,13,16,37,17.40
2015,09,13,16,38,17.40
2015,09,13,16,39,17.40
2015,09,13,16,40,17.50
2015,09,13,16,41,17.50
2015,09,13,16,42,17.60
2015,09,13,16,43,17.60
2015,09,13,16,44,17.50
2015,09,13,16,45,17.50
2015,09,13,16,46,17.50
2015,09,13,16,47,17.50
2015,09,13,16,48,17.60
2015,09,13,16,49,17.60
2015,09,13,16,50,17.60
2015,09,13,16,51,17.60
2015,09,13,16,52,17.60
2015,09,13,16,53,17.60
2015,09,13,16,54,17.60
2015,09,13,16,55,17.50
2015,09,13,16,56,17.50
2015,09,13,16,57,17.50
2015,09,13,16,58,17.50
2015,09,13,16,59,17.60
2015,09,13,17,00,17.60
2015,09,13,17,01,17.60
2015,09,13,17,02,17.60
2015,09,13,17,03,17.50
2015,09,13,17,04,17.50
2015,09,13,17,05,17.40
2015,09,13,17,06,17.40
2015,09,13,17,07,17.30
2015,09,13,17,08,17.30
2015,09,13,17,09,17.30
2015,09,13,17,10,17.40
2015,09,13,17,11,17.40
2015,09,13,17,12,17.30
2015,09,13,17,13,17.30
2015,09,13,17,14,17.30
2015,09,13,17,15,17.20
2015,09,13,17,16,17.20
2015,09,13,17,17,17.20
2015,09,13,17,18,17.20
2015,09,13,17,19,17.20